Birmingham, AL

7:10 PM CST on December 07, 2016 (GMT -0600)
Birmingham International

Weather History for KBHM - April, 2012

Change the Weather History Date:

Monday, April 23, 2012

  Actual Average Record
Temperature  
Mean Temperature 53 °F 64 °F  
Max Temperature 63 °F 76 °F 90 °F (1896)
Min Temperature 43 °F 53 °F 30 °F (1986)
Degree Days  
Heating Degree Days 12 3  
Month to date heating degree days 56 122  
Since 1 July heating degree days 1910 2634  
Cooling Degree Days 0 3  
Month to date cooling degree days 50 41  
Year to date cooling degree days 176 63  
Growing Degree Days 4 (Base 50)    
Moisture  
Dew Point 32 °F    
Average Humidity 55    
Maximum Humidity 89    
Minimum Humidity 20    
Precipitation  
Precipitation 0.00 in 0.14 in 1.36 in (1983)
Month to date precipitation 1.26 3.37  
Year to date precipitation 14.84 17.97  
Snow  
Snow 0.00 in 0.00 in - ()
Month to date snowfall 0.0 0.2  
Since 1 July snowfall T 1.6  
Snow Depth 0.00 in    
Sea Level Pressure  
Sea Level Pressure 29.96 in    
Wind  
Wind Speed 12 mph (NW)    
Max Wind Speed 28 mph    
Max Gust Speed 35 mph    
Visibility 10 miles    
Events      
T = Trace of Precipitation, MM = Missing Value Source: NWS Daily Summary

Daily Weather History Graph

Daily Weather History Graph

Search for Another Location

Airport or City:

Trip Planner

Search our weather history database for the weather conditions in past years. The results will help you decide how hot, cold, wet, or windy it might be!

Date:

Astronomy

Apr. 23, 2012 Rise Set
Actual Time 6:06 AM CDT 7:24 PM CDT
Civil Twilight 5:40 AM CDT 7:50 PM CDT
Nautical Twilight 5:09 AM CDT 8:21 PM CDT
Astronomical Twilight 4:37 AM CDT 8:53 PM CDT
Moon 7:23 AM CDT (4/23) 9:46 PM CDT (4/23)
Length of Visible Light 14h 09m
Length of Day
13h 17m
Waxing Crescent, 5% of the Moon is Illuminated
Apr 23
Waxing Crescent
Apr 29
First Quarter
May 5
Full
May 12
Last Quarter
May 20
New

Hourly Weather History & Observations

Time (CDT) Temp. Windchill Dew Point Humidity Pressure Visibility Wind Dir Wind Speed Gust Speed Precip Events Conditions
12:53 AM 48.9 °F - 43.0 °F 80% 29.90 in 10.0 mi WNW 6.9 mph - N/A   Clear
1:53 AM 48.0 °F - 43.0 °F 83% 29.90 in 10.0 mi NW 6.9 mph - N/A   Scattered Clouds
2:53 AM 46.9 °F - 43.0 °F 86% 29.90 in 10.0 mi WNW 4.6 mph - N/A   Clear
3:53 AM 46.0 °F 42.5 °F 42.1 °F 86% 29.91 in 10.0 mi WNW 6.9 mph - N/A   Clear
4:53 AM 45.0 °F 40.1 °F 41.0 °F 86% 29.92 in 10.0 mi NW 9.2 mph - N/A   Clear
5:53 AM 44.1 °F 39.5 °F 39.9 °F 85% 29.93 in 10.0 mi NW 8.1 mph - N/A   Clear
6:53 AM 45.0 °F 41.2 °F 39.0 °F 80% 29.96 in 10.0 mi NW 6.9 mph - N/A   Clear
7:53 AM 46.9 °F - 37.9 °F 71% 29.97 in 10.0 mi NNW 10.4 mph 19.6 mph N/A   Clear
8:53 AM 50.0 °F - 36.0 °F 59% 29.98 in 10.0 mi NW 15.0 mph 19.6 mph N/A   Partly Cloudy
9:53 AM 53.1 °F - 30.0 °F 41% 30.00 in 10.0 mi NNW 16.1 mph 26.5 mph N/A   Partly Cloudy
10:53 AM 55.0 °F - 26.1 °F 33% 29.99 in 10.0 mi NW 19.6 mph 25.3 mph N/A   Partly Cloudy
11:53 AM 57.9 °F - 27.0 °F 31% 29.97 in 10.0 mi NW 17.3 mph 26.5 mph N/A   Partly Cloudy
12:53 PM 61.0 °F - 25.0 °F 25% 29.96 in 10.0 mi WNW 16.1 mph 32.2 mph N/A   Partly Cloudy
1:53 PM 63.0 °F - 25.0 °F 24% 29.96 in 10.0 mi NW 21.9 mph 29.9 mph N/A   Partly Cloudy
2:53 PM 62.1 °F - 25.0 °F 24% 29.95 in 10.0 mi NW 21.9 mph 27.6 mph N/A   Partly Cloudy
3:53 PM 62.1 °F - 21.9 °F 21% 29.94 in 10.0 mi NNW 20.7 mph 26.5 mph N/A   Partly Cloudy
4:53 PM 61.0 °F - 24.1 °F 24% 29.94 in 10.0 mi WNW 18.4 mph 28.8 mph N/A   Partly Cloudy
5:53 PM 61.0 °F - 25.0 °F 25% 29.95 in 10.0 mi NW 18.4 mph 23.0 mph N/A   Partly Cloudy
6:53 PM 57.9 °F - 26.1 °F 30% 29.96 in 10.0 mi NNW 13.8 mph 25.3 mph N/A   Partly Cloudy
7:53 PM 55.9 °F - 28.0 °F 34% 29.97 in 10.0 mi NW 9.2 mph - N/A   Clear
8:53 PM 54.0 °F - 28.9 °F 38% 29.99 in 10.0 mi NW 8.1 mph - N/A   Clear
9:53 PM 53.1 °F - 30.0 °F 41% 30.00 in 10.0 mi West 4.6 mph - N/A   Clear
10:53 PM 51.1 °F - 30.9 °F 46% 29.99 in 10.0 mi West 3.5 mph - N/A   Clear
11:53 PM 46.9 °F - 33.1 °F 59% 29.99 in 10.0 mi Calm Calm - N/A   Clear